QPF
0.00 0.00 0.00 0.00 0.00 0.00 0.00 0.00 0.00 0.00 0.00 0.00 0.00 0.00 0.00 0.00 0.00 0.00 0.00 0.00 0.00 0.00 0.00 0.00 0.00 0.00 0.00 0.00 0.00 0.00 0.00 0.00 0.00 0.00 0.00 0.00 0.00 0.00 0.00 0.00 0.00 0.00 0.00 0.00 0.00 0.00 0.00
0.00 0.00 0.00 0.00 0.00 0.00 0.00 0.00 0.00 0.00 0.00 0.00 0.00 0.00 0.00 0.00 0.00 0.00 0.00 0.00 0.00 0.00 0.00 0.00 0.00 0.00 0.00 0.00 0.00 0.00 0.00 0.00 0.00 0.00 0.00 0.00 0.00 0.00 0.00 0.00 0.00 0.00 0.00 0.00 0.01 0.00 0.00
0.00 0.00 0.00 0.00 0.00 0.00 0.00 0.00 0.00 0.00 0.00 0.00 0.00 0.00 0.00 0.00 0.00 0.00 0.00 0.00 0.00 0.00 0.00 0.00 0.00 0.00 0.00 0.00 0.00 0.00 0.00 0.00 0.00 0.00 0.00 0.00 0.00 0.00 0.00 0.00 0.00 0.00 0.00 0.00 0.00 0.00 0.01
0.00 0.00 0.00 0.00 0.00 0.00 0.00 0.00 0.00 0.00 0.00 0.00 0.00 0.00 0.00 0.00 0.00 0.00 0.00 0.00 0.00 0.00 0.00 0.00 0.00 0.00 0.00 0.00 0.00 0.00 0.00 0.00 0.00 0.00 0.00 0.00 0.00 0.00 0.00 0.00 0.00 0.00 0.00 0.00 0.00 0.00 0.00
0.00 0.00 0.00 0.00 0.00 0.00 0.00 0.00 0.00 0.00 0.00 0.00 0.00 0.00 0.00 0.00 0.00 0.00 0.00 0.00 0.00 0.00 0.00 0.00 0.00 0.00 0.00 0.00 0.00 0.00 0.00 0.00 0.00 0.00 0.00 0.00 0.00 0.00 0.00 0.00 0.00 0.00 0.00 0.01 0.02 0.01 0.00
0.00 0.00 0.00 0.00 0.00 0.00 0.00 0.00 0.00 0.00 0.00 0.00 0.00 0.00 0.00 0.00 0.00 0.00 0.00 0.00 0.00 0.00 0.00 0.00 0.00 0.00 0.00 0.00 0.00 0.00 0.00 0.00 0.00 0.00 0.00 0.00 0.00 0.00 0.00 0.00 0.00 0.00 0.00 0.00 0.00 0.00 0.00
0.00 0.00 0.00 0.00 0.00 0.00 0.00 0.00 0.00 0.00 0.00 0.00 0.00 0.00 0.00 0.00 0.00 0.00 0.00 0.00 0.00 0.00 0.00 0.00 0.00 0.00 0.00 0.00 0.00 0.00 0.00 0.00 0.00 0.00 0.00 0.00 0.00 0.00 0.00 0.00 0.00 0.00 0.00 0.00 0.00 0.00 0.00
0.01 0.00 0.00 0.00 0.00 0.00 0.00 0.00 0.00 0.00 0.00 0.00 0.00 0.00 0.00 0.00 0.00 0.00 0.00 0.00 0.00 0.00 0.00 0.00 0.00 0.00 0.00 0.00 0.00 0.00 0.00 0.00 0.00 0.00 0.00 0.00 0.00 0.00 0.00 0.00 0.00 0.00 0.00 0.00 0.00 0.00 0.00
0.01 0.01 0.00 0.00 0.00 0.00 0.00 0.00 0.00 0.00 0.00 0.00 0.00 0.00 0.00 0.00 0.00 0.00 0.00 0.00 0.00 0.00 0.00 0.00 0.00 0.00 0.00 0.00 0.00 0.00 0.00 0.00 0.00 0.00 0.00 0.00 0.00 0.00 0.00 0.00 0.00 0.00 0.00 0.00 0.00 0.00 0.00
0.02 0.01 0.01 0.01 0.00 0.00 0.00 0.00 0.00 0.00 0.00 0.00 0.00 0.00 0.00 0.00 0.00 0.00 0.00 0.00 0.00 0.00 0.00 0.00 0.00 0.00 0.00 0.00 0.00 0.00 0.00 0.00 0.00 0.00 0.00 0.00 0.00 0.00 0.00 0.00 0.00 0.00 0.00 0.00 0.00 0.00 0.00
0.01 0.02 0.02 0.02 0.00 0.00 0.00 0.00 0.00 0.00 0.00 0.00 0.00 0.00 0.00 0.00 0.00 0.00 0.00 0.00 0.00 0.00 0.00 0.00 0.00 0.00 0.00 0.00 0.00 0.00 0.00 0.00 0.00 0.00 0.00 0.00 0.00 0.00 0.00 0.00 0.00 0.00 0.00 0.00 0.00 0.00 0.00
0.00 0.02 0.03 0.03 0.02 0.00 0.00 0.00 0.00 0.00 0.00 0.00 0.00 0.00 0.00 0.00 0.00 0.00 0.00 0.00 0.00 0.00 0.00 0.00 0.00 0.00 0.00 0.00 0.00 0.00 0.00 0.00 0.00 0.00 0.00 0.00 0.00 0.00 0.00 0.00 0.00 0.00 0.00 0.00 0.00 0.00 0.00
0.00 0.01 0.03 0.04 0.05 0.02 0.00 0.00 0.00 0.00 0.00 0.00 0.00 0.00 0.00 0.00 0.00 0.00 0.00 0.00 0.00 0.00 0.00 0.00 0.00 0.00 0.00 0.00 0.00 0.00 0.00 0.00 0.00 0.00 0.00 0.00 0.00 0.00 0.00 0.00 0.00 0.00 0.00 0.00 0.00 0.00 0.00
0.00 0.01 0.03 0.05 0.08 0.07 0.02 0.00 0.00 0.00 0.00 0.00 0.00 0.00 0.00 0.00 0.00 0.00 0.00 0.00 0.00 0.00 0.00 0.00 0.00 0.00 0.00 0.00 0.00 0.00 0.00 0.00 0.00 0.00 0.00 0.00 0.00 0.00 0.00 0.00 0.00 0.00 0.00 0.00 0.00 0.00 0.00
0.00 0.01 0.02 0.04 0.07 0.09 0.09 0.01 0.00 0.00 0.00 0.00 0.00 0.00 0.00 0.00 0.00 0.00 0.00 0.00 0.00 0.00 0.00 0.00 0.00 0.00 0.00 0.00 0.00 0.00 0.00 0.00 0.00 0.00 0.00 0.00 0.00 0.00 0.00 0.00 0.00 0.00 0.00 0.00 0.00 0.00 0.00
0.00 0.01 0.02 0.02 0.08 0.10 0.09 0.04 0.00 0.00 0.00 0.00 0.00 0.00 0.00 0.00 0.00 0.00 0.00 0.00 0.00 0.00 0.00 0.00 0.00 0.00 0.00 0.00 0.00 0.00 0.00 0.00 0.00 0.00 0.00 0.00 0.00 0.00 0.00 0.00 0.00 0.00 0.00 0.00 0.00 0.00 0.00
0.00 0.00 0.01 0.02 0.06 0.14 0.11 0.11 0.02 0.00 0.00 0.00 0.00 0.00 0.00 0.00 0.00 0.00 0.00 0.00 0.00 0.00 0.00 0.00 0.00 0.00 0.00 0.00 0.00 0.00 0.00 0.00 0.00 0.00 0.00 0.00 0.00 0.00 0.00 0.00 0.00 0.00 0.00 0.00 0.00 0.00 0.00
0.00 0.00 0.01 0.01 0.01 0.12 0.23 0.13 0.05 0.00 0.00 0.00 0.00 0.00 0.01 0.00 0.00 0.00 0.00 0.00 0.00 0.00 0.00 0.00 0.00 0.00 0.00 0.00 0.00 0.00 0.00 0.00 0.00 0.00 0.00 0.00 0.00 0.00 0.00 0.00 0.00 0.00 0.00 0.00 0.00 0.00 0.00
0.02 0.01 0.01 0.01 0.01 0.04 0.17 0.28 0.13 0.02 0.00 0.00 0.00 0.01 0.13 0.05 0.00 0.00 0.00 0.00 0.00 0.00 0.00 0.00 0.00 0.00 0.00 0.00 0.00 0.00 0.00 0.00 0.00 0.00 0.00 0.00 0.00 0.00 0.00 0.00 0.00 0.00 0.00 0.00 0.00 0.00 0.00
0.01 0.01 0.01 0.00 0.02 0.05 0.12 0.22 0.24 0.05 0.00 0.00 0.00 0.00 0.07 0.10 0.00 0.00 0.00 0.00 0.00 0.00 0.00 0.00 0.00 0.00 0.00 0.00 0.00 0.00 0.00 0.00 0.00 0.00 0.00 0.00 0.00 0.00 0.00 0.00 0.00 0.00 0.00 0.00 0.00 0.00 0.00
0.01 0.01 0.01 0.01 0.02 0.04 0.13 0.16 0.22 0.10 0.00 0.00 0.00 0.00 0.00 0.02 0.02 0.00 0.00 0.00 0.00 0.00 0.00 0.00 0.00 0.00 0.00 0.00 0.00 0.00 0.00 0.00 0.00 0.00 0.00 0.00 0.00 0.00 0.00 0.00 0.00 0.00 0.00 0.00 0.00 0.00 0.00
0.01 0.02 0.02 0.01 0.01 0.02 0.12 0.25 0.24 0.16 0.01 0.00 0.00 0.01 0.01 0.00 0.01 0.00 0.00 0.00 0.00 0.00 0.00 0.00 0.00 0.00 0.00 0.00 0.00 0.00 0.00 0.00 0.00 0.00 0.00 0.00 0.00 0.00 0.00 0.00 0.00 0.00 0.00 0.00 0.00 0.00 0.00
0.01 0.01 0.01 0.01 0.02 0.02 0.07 0.27 0.32 0.17 0.02 0.00 0.00 0.01 0.01 0.00 0.00 0.00 0.00 0.00 0.00 0.00 0.00 0.00 0.00 0.00 0.00 0.00 0.00 0.00 0.00 0.00 0.00 0.00 0.00 0.00 0.00 0.00 0.00 0.00 0.00 0.00 0.00 0.00 0.00 0.00 0.00
0.00 0.00 0.00 0.01 0.03 0.04 0.04 0.23 0.38 0.17 0.02 0.00 0.00 0.03 0.04 0.00 0.00 0.00 0.00 0.00 0.00 0.00 0.00 0.00 0.00 0.00 0.00 0.00 0.00 0.00 0.00 0.00 0.00 0.00 0.00 0.00 0.00 0.00 0.00 0.00 0.00 0.00 0.00 0.00 0.00 0.00 0.00
0.00 0.00 0.00 0.00 0.03 0.03 0.04 0.15 0.32 0.15 0.02 0.00 0.01 0.04 0.09 0.01 0.00 0.00 0.01 0.01 0.00 0.01 0.00 0.00 0.00 0.00 0.00 0.00 0.00 0.00 0.00 0.00 0.00 0.00 0.00 0.00 0.00 0.00 0.00 0.00 0.00 0.00 0.00 0.00 0.00 0.00 0.00
0.02 0.01 0.00 0.01 0.03 0.02 0.02 0.07 0.18 0.19 0.06 0.01 0.01 0.02 0.08 0.02 0.01 0.01 0.01 0.02 0.03 0.02 0.00 0.00 0.00 0.00 0.00 0.00 0.00 0.00 0.00 0.00 0.00 0.00 0.00 0.00 0.00 0.00 0.00 0.00 0.00 0.00 0.00 0.00 0.00 0.00 0.00
0.04 0.02 0.01 0.01 0.03 0.04 0.02 0.05 0.13 0.14 0.07 0.00 0.00 0.01 0.06 0.04 0.04 0.01 0.01 0.02 0.04 0.04 0.02 0.00 0.00 0.00 0.00 0.00 0.00 0.00 0.00 0.00 0.00 0.00 0.00 0.00 0.00 0.00 0.00 0.00 0.00 0.00 0.00 0.00 0.00 0.00 0.00
0.01 0.02 0.01 0.01 0.03 0.03 0.04 0.08 0.13 0.14 0.04 0.00 0.00 0.00 0.06 0.03 0.05 0.03 0.01 0.04 0.03 0.05 0.04 0.00 0.00 0.00 0.00 0.00 0.00 0.00 0.00 0.00 0.00 0.00 0.00 0.00 0.00 0.00 0.00 0.00 0.00 0.00 0.00 0.01 0.00 0.00 0.00
0.01 0.01 0.01 0.02 0.02 0.03 0.06 0.09 0.18 0.12 0.05 0.00 0.01 0.00 0.02 0.04 0.05 0.01 0.02 0.00 0.00 0.00 0.00 0.00 0.00 0.00 0.00 0.00 0.00 0.00 0.00 0.00 0.00 0.00 0.00 0.00 0.00 0.00 0.00 0.00 0.00 0.00 0.00 0.00 0.00 0.00 0.00
MSLP
1024.67 1024.61 1024.49 1024.32 1024.12 1023.92 1023.65 1023.33 1023.03 1022.64 1022.25 1021.92 1021.55 1021.10 1020.52 1020.01 1019.25 1018.69 1018.20 1017.53 1016.92 1016.34 1015.98 1015.64 1015.55 1015.34 1014.42 1013.92 1011.15 1009.35 1009.33 1009.74 1010.23 1010.18 1010.20 1010.36 1010.27 1009.75 1009.55 1009.13 1008.97 1008.57 1009.29 1009.21 1009.89 1010.09 1009.89
1024.57 1024.44 1024.36 1024.29 1024.15 1023.96 1023.71 1023.41 1023.05 1022.68 1022.34 1021.91 1021.42 1021.05 1020.62 1020.04 1019.35 1018.67 1017.89 1017.16 1016.50 1015.94 1015.66 1015.37 1015.31 1015.33 1014.76 1012.54 1008.42 1008.76 1009.26 1009.88 1009.76 1009.84 1009.85 1009.89 1009.55 1008.92 1009.14 1008.98 1009.02 1008.96 1009.16 1010.24 1010.27 1010.97 1010.09
1024.40 1024.24 1024.15 1024.06 1024.02 1023.89 1023.70 1023.44 1023.13 1022.73 1022.25 1021.76 1021.30 1020.85 1020.26 1019.73 1019.07 1018.34 1017.45 1016.65 1016.09 1015.49 1015.13 1015.09 1014.90 1014.75 1013.62 1010.60 1008.70 1008.77 1008.93 1009.13 1009.08 1009.28 1009.47 1008.88 1009.04 1008.84 1008.93 1009.26 1009.00 1009.00 1009.47 1010.74 1011.45 1011.31 1010.64
1024.17 1024.09 1023.93 1023.81 1023.73 1023.65 1023.57 1023.32 1023.01 1022.58 1022.18 1021.74 1021.23 1020.61 1020.04 1019.40 1018.67 1017.85 1017.03 1016.29 1015.62 1014.98 1014.67 1014.53 1014.63 1014.24 1012.27 1008.73 1008.20 1009.12 1008.84 1008.77 1008.71 1008.83 1008.83 1008.61 1008.59 1008.71 1009.08 1009.50 1009.64 1009.99 1010.86 1011.95 1011.90 1011.55 1011.57
1023.83 1023.76 1023.73 1023.61 1023.48 1023.40 1023.27 1023.16 1022.95 1022.60 1022.16 1021.69 1021.11 1020.47 1019.82 1019.15 1018.36 1017.50 1016.48 1015.56 1014.64 1014.27 1014.24 1014.34 1014.47 1013.66 1011.06 1008.22 1008.21 1007.76 1008.01 1008.34 1008.50 1008.59 1008.55 1008.52 1008.85 1009.40 1009.80 1010.52 1011.02 1011.27 1012.06 1012.32 1012.05 1011.67 1011.53
1023.43 1023.37 1023.27 1023.29 1023.23 1023.13 1023.04 1022.86 1022.68 1022.52 1022.20 1021.70 1021.09 1020.43 1019.74 1018.96 1018.06 1017.10 1016.03 1014.47 1013.72 1013.69 1013.84 1013.82 1013.18 1012.96 1010.09 1008.16 1007.61 1007.64 1007.50 1007.76 1008.31 1008.66 1008.84 1008.87 1009.55 1010.14 1010.62 1011.10 1011.44 1011.73 1012.07 1012.35 1012.31 1011.01 1010.92
1022.89 1022.88 1022.87 1022.79 1022.82 1022.80 1022.72 1022.62 1022.43 1022.16 1021.99 1021.69 1021.18 1020.49 1019.77 1018.99 1017.96 1016.91 1016.35 1014.63 1013.95 1014.09 1013.37 1012.08 1011.17 1009.91 1008.24 1007.76 1006.89 1007.38 1007.41 1007.58 1008.08 1008.73 1009.41 1009.59 1010.31 1010.59 1010.58 1010.47 1010.13 1010.45 1010.98 1011.42 1011.04 1009.95 1011.13
1022.47 1022.36 1022.31 1022.33 1022.32 1022.34 1022.34 1022.27 1022.21 1022.01 1021.69 1021.44 1021.05 1020.49 1019.73 1018.83 1017.80 1016.68 1016.64 1015.44 1014.56 1014.48 1013.33 1010.99 1010.18 1009.45 1008.37 1008.05 1007.46 1007.19 1007.16 1007.95 1008.36 1009.06 1009.61 1010.18 1010.04 1009.98 1009.73 1009.67 1009.63 1009.57 1009.89 1010.22 1010.01 1009.26 1009.92
1022.19 1021.95 1021.74 1021.71 1021.77 1021.81 1021.85 1021.87 1021.80 1021.77 1021.56 1021.18 1020.76 1020.23 1019.56 1018.65 1017.52 1016.36 1015.67 1014.71 1013.85 1013.97 1013.57 1010.03 1008.52 1007.94 1007.74 1007.83 1007.80 1007.35 1007.41 1007.87 1008.60 1009.21 1009.56 1009.95 1009.44 1009.23 1009.18 1008.97 1008.98 1009.02 1009.18 1009.16 1009.46 1009.20 1008.90
1021.72 1021.52 1021.37 1021.14 1021.11 1021.20 1021.29 1021.40 1021.44 1021.37 1021.29 1021.06 1020.64 1020.21 1019.60 1018.46 1017.38 1016.84 1015.36 1014.52 1014.15 1014.08 1013.34 1009.23 1007.05 1006.12 1006.80 1007.40 1007.50 1007.17 1007.13 1008.01 1008.65 1008.97 1009.44 1009.54 1008.84 1008.74 1008.55 1008.49 1008.33 1008.60 1008.47 1008.81 1009.33 1009.93 1010.31
1021.32 1020.99 1020.78 1020.72 1020.50 1020.53 1020.69 1020.84 1021.02 1021.01 1020.94 1020.78 1020.51 1020.10 1019.69 1019.58 1018.65 1017.05 1015.59 1014.66 1014.19 1014.13 1012.58 1007.66 1005.73 1004.92 1005.49 1006.69 1006.28 1006.23 1006.59 1007.39 1008.19 1008.77 1009.22 1008.92 1008.49 1008.22 1008.03 1007.70 1007.73 1008.13 1008.31 1009.04 1009.57 1010.42 1010.83
1020.93 1020.57 1020.18 1020.06 1020.13 1019.86 1020.04 1020.21 1020.44 1020.54 1020.58 1020.50 1020.30 1019.95 1019.65 1018.50 1018.70 1016.38 1015.34 1014.95 1014.87 1014.58 1011.62 1007.46 1005.53 1005.14 1005.74 1006.35 1006.41 1006.15 1006.45 1007.11 1007.63 1008.68 1008.80 1008.66 1007.98 1007.72 1007.41 1007.28 1007.40 1007.79 1008.57 1009.59 1010.41 1011.31 1011.92
1020.32 1020.07 1019.74 1019.48 1019.46 1019.26 1019.25 1019.49 1019.74 1020.09 1020.06 1020.14 1020.03 1019.82 1019.81 1019.31 1017.50 1015.98 1015.81 1015.62 1015.53 1013.53 1009.70 1007.22 1006.04 1005.61 1005.93 1006.22 1006.67 1006.68 1006.87 1007.23 1007.84 1008.77 1009.18 1008.79 1008.15 1007.46 1007.26 1007.42 1007.33 1008.03 1009.59 1011.23 1012.30 1012.87 1012.63
1019.77 1019.42 1019.17 1018.82 1018.74 1018.54 1018.51 1018.61 1018.98 1019.41 1019.61 1019.68 1019.61 1019.35 1018.70 1017.95 1016.86 1016.71 1016.34 1016.19 1014.89 1011.30 1009.05 1006.29 1005.56 1005.49 1005.87 1006.31 1006.53 1006.88 1007.17 1007.48 1007.68 1008.41 1008.99 1009.12 1008.41 1007.54 1006.97 1007.19 1007.80 1008.53 1009.89 1011.57 1012.87 1013.36 1012.66
1019.15 1018.74 1018.53 1018.35 1018.16 1018.05 1017.99 1017.74 1018.17 1018.75 1019.12 1019.31 1019.25 1018.48 1017.69 1015.96 1016.21 1017.02 1016.84 1015.56 1012.23 1010.32 1008.36 1007.07 1006.15 1005.68 1005.72 1005.93 1006.31 1006.75 1006.94 1007.19 1007.34 1007.95 1008.80 1008.50 1008.11 1006.95 1006.61 1006.64 1007.41 1008.51 1009.60 1010.95 1012.27 1012.96 1013.14
1018.42 1018.11 1017.83 1017.75 1017.57 1017.48 1017.22 1016.93 1017.49 1018.03 1018.63 1019.07 1019.21 1018.07 1016.14 1014.70 1015.32 1016.36 1016.28 1013.56 1011.27 1009.31 1007.82 1007.38 1006.92 1006.16 1005.91 1005.84 1006.14 1006.44 1006.60 1006.26 1006.69 1007.06 1007.57 1008.00 1008.18 1007.09 1006.53 1006.12 1006.86 1007.82 1009.21 1010.82 1012.55 1013.70 1013.72
1017.67 1017.38 1017.14 1016.94 1016.77 1016.80 1016.61 1016.25 1016.66 1017.39 1018.14 1018.73 1018.92 1017.29 1013.53 1013.54 1015.07 1015.73 1014.67 1012.58 1010.85 1009.19 1008.15 1007.52 1007.03 1006.88 1006.20 1006.05 1005.89 1005.97 1006.07 1006.05 1005.86 1006.31 1006.92 1007.70 1008.30 1007.88 1007.53 1006.98 1007.18 1008.27 1009.23 1010.76 1012.25 1013.38 1013.73
1016.82 1016.56 1016.36 1016.13 1015.99 1016.04 1015.96 1016.10 1015.85 1016.66 1017.67 1018.47 1017.93 1016.25 1012.81 1012.73 1014.64 1014.10 1013.12 1011.82 1010.59 1009.25 1008.25 1008.07 1007.25 1007.31 1007.30 1006.82 1006.48 1006.10 1005.51 1005.39 1005.48 1005.67 1006.59 1007.26 1008.07 1008.60 1007.75 1007.50 1007.21 1007.74 1008.90 1010.36 1012.45 1013.30 1013.17
1015.96 1015.70 1015.52 1015.33 1015.18 1015.27 1015.49 1015.47 1014.85 1015.75 1016.62 1017.13 1016.87 1015.05 1013.21 1012.59 1013.19 1013.01 1012.25 1011.45 1010.55 1009.61 1008.46 1007.98 1007.70 1007.51 1007.59 1007.36 1007.44 1006.08 1005.61 1005.85 1005.70 1006.22 1007.15 1007.60 1008.35 1008.96 1008.96 1008.34 1007.91 1008.17 1008.92 1009.96 1011.18 1012.17 1012.67
1015.02 1014.83 1014.69 1014.53 1014.36 1014.44 1014.74 1014.70 1014.70 1014.96 1015.82 1016.51 1016.42 1014.77 1013.41 1013.06 1012.37 1012.30 1012.04 1010.84 1010.04 1009.38 1008.72 1008.07 1007.92 1007.66 1007.88 1007.73 1007.51 1007.01 1007.04 1006.65 1006.63 1007.16 1007.60 1007.80 1008.59 1009.17 1009.27 1009.20 1008.93 1008.87 1008.99 1009.41 1010.40 1011.67 1011.97
1013.97 1013.92 1013.82 1013.73 1013.69 1013.69 1013.84 1014.16 1014.40 1014.36 1015.39 1016.10 1016.06 1014.55 1012.68 1012.49 1012.12 1012.01 1011.70 1010.44 1009.54 1008.62 1008.33 1007.91 1007.80 1007.90 1008.07 1008.40 1007.85 1007.61 1007.45 1007.62 1007.49 1007.71 1008.00 1008.53 1009.28 1009.45 1009.59 1009.41 1009.07 1008.89 1009.09 1009.20 1009.79 1010.43 1011.22
1013.02 1012.96 1012.96 1012.96 1012.92 1012.88 1013.06 1013.47 1013.54 1013.89 1015.06 1015.76 1015.44 1014.37 1013.49 1012.52 1011.68 1011.61 1011.05 1010.05 1009.22 1008.11 1007.63 1007.63 1008.01 1008.09 1008.15 1008.37 1008.11 1008.23 1007.92 1008.16 1007.90 1008.44 1008.69 1009.05 1009.82 1010.03 1010.23 1009.93 1009.56 1009.17 1008.76 1008.93 1009.39 1009.85 1010.19
1012.09 1012.16 1012.19 1012.22 1012.24 1012.17 1012.44 1012.83 1013.12 1013.29 1014.53 1014.99 1014.64 1014.33 1014.77 1013.11 1011.81 1011.30 1010.39 1009.83 1008.72 1008.13 1007.35 1007.50 1007.97 1008.54 1008.42 1008.60 1008.43 1008.74 1008.62 1008.74 1008.64 1008.69 1009.49 1009.94 1010.47 1011.10 1011.26 1010.89 1010.44 1009.59 1008.66 1008.66 1009.01 1009.37 1009.81
1011.48 1011.47 1011.45 1011.51 1011.61 1011.65 1011.88 1012.29 1012.40 1012.91 1013.43 1013.43 1013.67 1014.65 1014.96 1013.52 1012.08 1010.95 1010.07 1009.55 1008.88 1008.21 1008.06 1007.62 1007.92 1008.62 1009.08 1008.97 1008.95 1009.16 1009.36 1009.53 1009.46 1009.41 1009.77 1010.60 1011.21 1011.96 1012.45 1012.08 1011.27 1009.75 1008.53 1008.63 1009.03 1009.85 1010.13
1010.87 1010.78 1010.76 1010.81 1011.05 1011.24 1011.48 1011.75 1012.53 1012.68 1013.35 1013.70 1013.89 1014.53 1014.64 1013.73 1012.14 1011.05 1010.43 1009.71 1009.28 1008.97 1008.55 1009.02 1009.53 1009.71 1009.49 1009.59 1010.28 1010.53 1010.73 1010.64 1010.44 1010.34 1010.52 1011.03 1012.05 1013.10 1013.57 1013.27 1011.76 1010.12 1009.39 1009.13 1009.63 1010.86 1011.10
1009.88 1009.82 1010.10 1010.27 1010.48 1010.72 1011.05 1011.54 1011.71 1012.45 1013.45 1014.07 1014.13 1014.51 1014.69 1013.98 1013.03 1012.54 1011.67 1010.81 1010.67 1010.53 1010.16 1010.58 1010.62 1010.12 1010.15 1010.73 1011.46 1011.85 1011.88 1011.41 1011.08 1010.79 1010.77 1011.64 1012.33 1013.69 1014.38 1014.19 1012.69 1010.58 1009.83 1009.28 1009.39 1011.20 1012.08
1009.88 1009.53 1009.62 1009.82 1010.06 1010.25 1010.74 1011.16 1011.60 1012.04 1013.30 1014.23 1014.12 1014.48 1014.31 1014.20 1013.69 1013.02 1012.24 1011.72 1010.96 1011.11 1011.28 1011.17 1011.31 1011.28 1011.07 1012.15 1012.81 1013.00 1012.56 1011.70 1011.47 1011.09 1011.10 1011.80 1012.69 1013.64 1014.48 1014.41 1012.54 1010.99 1010.00 1009.78 1010.73 1012.89 1012.81
1010.15 1009.71 1009.44 1009.39 1009.50 1009.69 1010.08 1010.61 1011.14 1011.96 1012.86 1014.02 1014.03 1013.88 1014.29 1014.28 1014.14 1013.67 1013.13 1012.61 1011.96 1012.18 1011.75 1011.47 1011.72 1012.26 1012.54 1013.04 1013.62 1013.60 1013.25 1012.43 1011.93 1011.38 1011.19 1011.53 1012.56 1013.40 1014.14 1014.19 1013.17 1011.72 1010.99 1011.63 1012.69 1012.79 1013.04
1010.14 1009.71 1009.32 1009.07 1009.01 1009.25 1009.83 1010.20 1010.21 1011.43 1012.82 1013.87 1013.96 1013.56 1014.38 1014.92 1014.43 1013.86 1013.94 1013.14 1012.62 1012.55 1011.91 1011.55 1012.08 1012.31 1012.85 1013.67 1014.12 1013.98 1013.82 1013.14 1012.74 1012.37 1011.22 1011.64 1011.54 1012.31 1012.96 1013.04 1012.79 1012.45 1012.52 1012.69 1012.81 1012.87 1013.03
Thickness
5600 5601 5603 5605 5608 5610 5613 5616 5620 5625 5629 5634 5639 5644 5651 5657 5665 5671 5677 5685 5692 5698 5702 5707 5710 5714 5725 5722 5739 5773 5776 5775 5772 5773 5765 5759 5752 5755 5744 5755 5760 5761 5763 5774 5759 5759 5762
5594 5597 5598 5600 5602 5605 5608 5611 5615 5619 5623 5628 5635 5639 5645 5651 5659 5666 5675 5684 5691 5698 5702 5706 5708 5710 5714 5709 5774 5772 5770 5767 5769 5767 5762 5762 5758 5766 5755 5755 5751 5765 5764 5749 5750 5746 5755
5588 5590 5593 5595 5597 5599 5602 5606 5610 5614 5619 5625 5631 5636 5643 5649 5656 5664 5674 5683 5690 5697 5701 5704 5708 5711 5714 5725 5764 5766 5768 5766 5770 5767 5756 5769 5767 5762 5759 5744 5763 5762 5752 5735 5731 5739 5745
5582 5583 5585 5588 5590 5593 5596 5600 5604 5610 5615 5620 5626 5633 5640 5647 5655 5664 5672 5681 5688 5695 5700 5704 5705 5710 5708 5758 5764 5756 5762 5761 5769 5769 5766 5771 5774 5763 5755 5756 5751 5740 5724 5699 5728 5734 5735
5575 5576 5577 5579 5582 5585 5589 5593 5597 5602 5608 5614 5621 5628 5636 5644 5653 5662 5672 5682 5691 5696 5698 5699 5701 5706 5710 5758 5749 5763 5765 5753 5759 5763 5765 5770 5763 5745 5741 5723 5709 5716 5690 5701 5712 5727 5730
5566 5567 5569 5571 5573 5575 5579 5584 5589 5593 5599 5606 5614 5622 5631 5640 5650 5660 5671 5685 5692 5694 5696 5697 5704 5696 5723 5731 5751 5757 5765 5762 5749 5748 5745 5746 5734 5718 5715 5704 5682 5695 5697 5700 5699 5725 5731
5556 5557 5559 5561 5563 5565 5568 5573 5579 5585 5591 5596 5604 5614 5623 5632 5644 5655 5663 5677 5683 5682 5689 5694 5705 5714 5734 5744 5759 5747 5756 5752 5748 5737 5713 5725 5703 5693 5707 5718 5728 5722 5714 5700 5717 5738 5721
5544 5545 5548 5549 5552 5554 5557 5561 5566 5573 5581 5588 5595 5604 5614 5625 5638 5651 5654 5666 5668 5671 5668 5704 5711 5715 5731 5737 5726 5738 5754 5729 5727 5709 5718 5707 5697 5718 5731 5731 5728 5726 5718 5711 5723 5741 5728
5528 5531 5534 5537 5538 5542 5545 5549 5554 5560 5567 5577 5586 5595 5605 5617 5630 5645 5655 5661 5671 5673 5660 5699 5716 5719 5723 5728 5716 5724 5738 5730 5717 5707 5709 5695 5714 5731 5726 5724 5721 5721 5717 5720 5717 5731 5741
5510 5512 5516 5521 5524 5528 5532 5536 5540 5547 5554 5562 5573 5582 5593 5607 5623 5630 5646 5654 5661 5665 5645 5690 5711 5725 5725 5724 5710 5736 5741 5725 5714 5705 5708 5705 5728 5723 5722 5719 5725 5704 5734 5731 5724 5706 5685
5488 5491 5494 5499 5506 5511 5516 5521 5526 5533 5540 5549 5559 5569 5579 5587 5597 5616 5634 5644 5652 5651 5594 5701 5712 5742 5733 5715 5726 5728 5744 5727 5706 5706 5706 5703 5714 5714 5711 5722 5731 5715 5735 5725 5722 5702 5695
5463 5465 5470 5475 5481 5492 5498 5504 5511 5518 5526 5534 5544 5554 5565 5582 5587 5611 5623 5632 5635 5606 5604 5681 5707 5708 5707 5712 5717 5728 5726 5732 5727 5705 5709 5710 5732 5726 5723 5733 5733 5738 5724 5713 5707 5694 5660
5436 5438 5442 5451 5459 5470 5480 5486 5494 5501 5511 5520 5529 5539 5549 5562 5581 5601 5608 5612 5594 5585 5664 5679 5685 5702 5698 5697 5701 5706 5704 5699 5690 5674 5677 5700 5708 5726 5731 5715 5731 5723 5692 5649 5650 5645 5647
5411 5415 5419 5428 5438 5450 5462 5472 5478 5486 5495 5505 5515 5527 5542 5557 5573 5580 5590 5590 5576 5626 5654 5696 5694 5695 5685 5692 5694 5695 5690 5683 5699 5693 5677 5669 5665 5707 5727 5713 5705 5703 5688 5642 5642 5637 5657
5393 5397 5401 5408 5421 5429 5445 5457 5464 5472 5480 5489 5501 5518 5537 5555 5562 5561 5567 5554 5594 5632 5663 5669 5677 5676 5679 5690 5689 5687 5681 5685 5693 5694 5668 5671 5676 5719 5725 5726 5717 5697 5678 5696 5667 5672 5657
5381 5384 5389 5395 5406 5416 5430 5445 5452 5458 5465 5474 5483 5503 5532 5546 5551 5548 5551 5581 5611 5644 5660 5658 5645 5665 5663 5677 5677 5676 5675 5696 5694 5702 5699 5686 5666 5706 5717 5725 5716 5703 5707 5663 5648 5633 5637
5371 5375 5379 5385 5396 5406 5418 5434 5443 5446 5452 5459 5468 5490 5534 5541 5534 5533 5537 5575 5607 5632 5645 5643 5646 5648 5665 5669 5677 5672 5678 5693 5702 5701 5699 5691 5668 5683 5700 5697 5687 5685 5679 5681 5667 5650 5629
5362 5367 5372 5378 5389 5399 5411 5423 5435 5437 5440 5445 5458 5481 5525 5532 5514 5531 5552 5581 5602 5614 5630 5629 5644 5644 5643 5655 5658 5665 5672 5685 5698 5703 5686 5692 5670 5653 5678 5701 5709 5697 5681 5676 5627 5645 5647
5354 5359 5366 5373 5383 5394 5406 5417 5433 5431 5435 5443 5453 5481 5509 5518 5504 5532 5556 5570 5585 5596 5611 5620 5622 5638 5642 5645 5640 5667 5670 5679 5689 5682 5677 5679 5655 5630 5652 5673 5689 5679 5683 5679 5667 5655 5644
5347 5353 5360 5368 5379 5389 5401 5411 5422 5426 5428 5436 5446 5457 5487 5505 5523 5532 5541 5560 5570 5589 5597 5610 5615 5628 5626 5630 5643 5648 5644 5662 5672 5665 5664 5673 5661 5643 5625 5648 5666 5665 5673 5677 5665 5628 5635
5343 5348 5355 5364 5373 5384 5395 5404 5411 5423 5422 5426 5436 5451 5490 5488 5512 5523 5530 5551 5562 5576 5590 5601 5601 5610 5615 5610 5624 5634 5645 5642 5655 5651 5660 5654 5641 5655 5657 5662 5666 5666 5663 5663 5652 5653 5636
5340 5345 5352 5360 5370 5381 5392 5400 5411 5417 5414 5418 5430 5456 5469 5494 5514 5518 5524 5540 5553 5575 5583 5585 5586 5601 5607 5606 5616 5621 5631 5631 5634 5639 5642 5646 5630 5645 5636 5649 5651 5649 5659 5660 5658 5660 5659
5338 5342 5349 5357 5366 5378 5389 5398 5406 5413 5411 5416 5430 5446 5450 5479 5502 5511 5524 5536 5553 5566 5580 5586 5585 5585 5594 5601 5605 5612 5618 5621 5625 5627 5624 5626 5620 5616 5608 5634 5632 5616 5644 5653 5652 5657 5652
5337 5341 5347 5355 5364 5375 5384 5394 5403 5410 5417 5423 5433 5435 5439 5460 5492 5510 5526 5536 5545 5558 5561 5575 5578 5577 5579 5597 5602 5606 5608 5610 5614 5617 5620 5609 5611 5605 5590 5613 5575 5625 5659 5654 5646 5643 5640
5336 5341 5347 5355 5362 5372 5382 5390 5394 5403 5408 5415 5424 5430 5437 5450 5487 5503 5513 5526 5533 5540 5549 5545 5553 5561 5573 5582 5569 5569 5562 5581 5593 5601 5603 5605 5592 5570 5567 5576 5601 5621 5630 5635 5625 5616 5621
5340 5344 5347 5354 5361 5370 5380 5387 5398 5401 5403 5406 5415 5423 5429 5445 5465 5475 5490 5508 5510 5517 5528 5530 5540 5551 5559 5556 5548 5547 5544 5567 5570 5583 5594 5592 5587 5567 5563 5557 5563 5603 5626 5636 5631 5591 5602
5335 5342 5347 5352 5359 5368 5376 5385 5393 5399 5397 5399 5410 5417 5426 5433 5449 5463 5477 5489 5506 5508 5511 5520 5527 5533 5543 5526 5515 5533 5543 5567 5558 5565 5572 5568 5562 5552 5546 5546 5573 5600 5613 5619 5585 5570 5589
5329 5336 5344 5352 5360 5369 5378 5387 5392 5397 5398 5396 5404 5415 5419 5427 5435 5451 5464 5472 5488 5490 5497 5512 5502 5507 5512 5512 5517 5522 5531 5545 5555 5567 5571 5562 5545 5531 5538 5534 5541 5579 5591 5576 5567 5574 5581
5325 5332 5341 5350 5360 5369 5378 5387 5398 5397 5394 5393 5401 5411 5413 5416 5426 5440 5446 5462 5472 5481 5490 5505 5500 5513 5510 5506 5511 5521 5515 5531 5540 5532 5568 5549 5556 5549 5551 5545 5560 5564 5560 5564 5563 5565 5569